Regional Weather Roundup
Issued by NWS Jackson, KY

Home | Current Version | Previous Version | Text Only | Print | Product List | Glossary On
Versions: 1 2 3 4 5 6 7 8 9 10 11 12 13 14 15 16 17 18 19 20 21 22 23 24 25 26 27 28 29 30 31 32 33 34 35 36 37 38 39 40 41 42 43 44 45 46 47 48 49 50
000
ASUS43 KJKL 281410
RWRJKL

EAST KENTUCKY HOURLY WEATHER ROUNDUP
NATIONAL WEATHER SERVICE JACKSON KY
900 AM EST SAT FEB 28 2015

NOTE: "FAIR" INDICATES FEW OR NO CLOUDS BELOW 12,000 FEET WITH
NO SIGNIFICANT WEATHER AND/OR OBSTRUCTIONS TO VISIBILITY.

* THESE REPORTS ARE NOT UNDER NWS QUALITY CONTROL AND MAY NOT
  REPORT WEATHER SUCH AS PRECIPITATION AND FOG.

KYZ079-080-083-085-087-088-110-112-115-119-120-281500
...EASTERN KENTUCKY...

CITY           SKY/WX    TMP DP  RH WIND       PRES   REMARKS
JACKSON        PTSUNNY   20   8  60 VRB3      30.62R
LONDON         PTSUNNY   25   8  48 NE7       30.61R WCI  17
SOMERSET*      MOSUNNY   23  10  58 NE5       30.65R WCI  17
MONTICELLO*    CLOUDY    24  12  60 NE8       30.65R WCI  15
MIDDLESBORO*   MOSUNNY   22  15  72 CALM      30.61R
BLACK MTN*       N/A     25  19  80 S6          N/A  WCI  18
PIKEVILLE APT* SUNNY     19   7  58 CALM      30.63R
BIG SANDY*     SUNNY     22   9  56 E3        30.66R
MOREHEAD APT*  PTSUNNY   19   3  49 VRB5      30.70R WCI  13
$$

KYZ035-036-041-042-044-050-067-078-099-281500
...CENTRAL KENTUCKY...

CITY           SKY/WX    TMP DP  RH WIND       PRES   REMARKS
MT STERLING*   CLOUDY    19   7  58 E7        30.68S WCI  10
FLEMING/MASON* CLOUDY    16   3  57 E7        30.72R WCI   6
DANVILLE*      PTSUNNY   19   9  63 E6        30.66R WCI  11
RICHMOND*      PTSUNNY   19   9  63 E8        30.65R WCI   9
LEXINGTON      CLOUDY    19   6  57 E12       30.67R WCI   7
FRANKFORT        N/A     18   5  57 NE8       30.68R WCI   8
$$

KYZ091>093-OHZ055-061-077-WVZ005-015-034-035-042-281500
...SOUTHERN OHIO/WEST VIRGINIA...

CITY           SKY/WX    TMP DP  RH WIND       PRES   REMARKS
COVINGTON      CLOUDY    15   1  53 E9        30.71R WCI   3
COLUMBUS       PTSUNNY   10  -1  61 CALM      30.75R
DAYTON         PTSUNNY   12   0  58 SE9       30.72R WCI   0
WILMINGTON     CLOUDY    10  -2  58 E6        30.70S WCI   0
HUNTINGTON     MOSUNNY   18   6  59 NE5       30.70R WCI  11
CHARLESTON     PTSUNNY   18   7  62 NE6       30.69R WCI  10
PINEVILLE*       N/A     18  14  84 MISG      30.66F
BECKLEY        SUNNY     18   5  57 SE12G21   30.57R WCI   5
BLUEFIELD      SUNNY     21   7  54 SE9G17    30.55R WCI  11
$$

VAZ002-007-008-TNZ017-027-036-066-071-281500
...SOUTHWEST VIRGINIA/EAST TENNESSEE...

CITY           SKY/WX    TMP DP  RH WIND       PRES   REMARKS
WISE*          SUNNY     27  10  50 SE3       30.53R
JONESVILLE*    SUNNY     23  10  58 CALM      30.62R
ABINGDON*      SUNNY     24  11  58 E12       30.57R WCI  13
BRISTOL        PTSUNNY   22  12  65 E5        30.60R WCI  16
KNOXVILLE      PTSUNNY   26  15  63 NE9       30.59R WCI  17
OAK RIDGE      CLOUDY    29  14  53 NE5       30.61R WCI  24
CROSSVILLE     CLOUDY    27  15  61 E5        30.53R WCI  22
NASHVILLE      CLOUDY    27  12  53 NE7       30.61R WCI  19
$$

...KEY TO REMARKS...
VSB - VISIBILITY IN MILES
WCI - WIND CHILL INDEX
HX  - HEAT INDEX

$$



USA.gov is the U.S. government's official web portal to all federal, state and local government web resources and services.